Year,Month,Day,Hour,Minute,Value (Times are PST for windspeed in km/hr)
2021,07,08,00,00,0.50
2021,07,08,00,01,1.10
2021,07,08,00,02,1.30
2021,07,08,00,03,1.60
2021,07,08,00,04,1.70
2021,07,08,00,05,1.30
2021,07,08,00,06,0.10
2021,07,08,00,07,0.00
2021,07,08,00,08,0.80
2021,07,08,00,09,2.20
2021,07,08,00,10,1.40
2021,07,08,00,11,0.40
2021,07,08,00,12,0.00
2021,07,08,00,13,0.00
2021,07,08,00,14,0.00
2021,07,08,00,15,0.60
2021,07,08,00,16,1.10
2021,07,08,00,17,0.40
2021,07,08,00,18,0.00
2021,07,08,00,19,0.50
2021,07,08,00,20,0.40
2021,07,08,00,21,0.40
2021,07,08,00,22,0.90
2021,07,08,00,23,1.20
2021,07,08,00,24,1.40
2021,07,08,00,25,1.60
2021,07,08,00,26,1.60
2021,07,08,00,27,1.60
2021,07,08,00,28,1.00
2021,07,08,00,29,0.70
2021,07,08,00,30,1.00
2021,07,08,00,31,0.90
2021,07,08,00,32,1.00
2021,07,08,00,33,0.80
2021,07,08,00,34,1.00
2021,07,08,00,35,0.90
2021,07,08,00,36,1.30
2021,07,08,00,37,1.30
2021,07,08,00,38,1.60
2021,07,08,00,39,2.10
2021,07,08,00,40,1.80
2021,07,08,00,41,1.80
2021,07,08,00,42,1.80
2021,07,08,00,43,1.90
2021,07,08,00,44,1.00
2021,07,08,00,45,1.60
2021,07,08,00,46,2.00
2021,07,08,00,47,1.90
2021,07,08,00,48,2.20
2021,07,08,00,49,1.80
2021,07,08,00,50,1.60
2021,07,08,00,51,1.20
2021,07,08,00,52,0.60
2021,07,08,00,53,0.70
2021,07,08,00,54,1.60
2021,07,08,00,55,2.20
2021,07,08,00,56,2.30
2021,07,08,00,57,2.20
2021,07,08,00,58,1.60
2021,07,08,00,59,0.90
2021,07,08,01,00,0.90
2021,07,08,01,01,0.20
2021,07,08,01,02,0.00
2021,07,08,01,03,0.50
2021,07,08,01,04,0.50
2021,07,08,01,05,1.30
2021,07,08,01,06,0.90
2021,07,08,01,07,1.10
2021,07,08,01,08,1.70
2021,07,08,01,09,1.40
2021,07,08,01,10,0.60
2021,07,08,01,11,1.70
2021,07,08,01,12,1.30
2021,07,08,01,13,0.80
2021,07,08,01,14,1.10
2021,07,08,01,15,1.60
2021,07,08,01,16,1.10
2021,07,08,01,17,0.20
2021,07,08,01,18,1.10
2021,07,08,01,19,3.10
2021,07,08,01,20,2.20
2021,07,08,01,21,0.10
2021,07,08,01,22,0.40
2021,07,08,01,23,1.30
2021,07,08,01,24,2.80
2021,07,08,01,25,4.00
2021,07,08,01,26,4.70
2021,07,08,01,27,5.50
2021,07,08,01,28,6.20
2021,07,08,01,29,4.90
2021,07,08,01,30,5.80
2021,07,08,01,31,5.80
2021,07,08,01,32,5.90
2021,07,08,01,33,5.50
2021,07,08,01,34,4.80
2021,07,08,01,35,4.80
2021,07,08,01,36,5.10
2021,07,08,01,37,4.50
2021,07,08,01,38,5.00
2021,07,08,01,39,5.50
2021,07,08,01,40,4.90
2021,07,08,01,41,5.20
2021,07,08,01,42,4.60
2021,07,08,01,43,3.70
2021,07,08,01,44,3.80
2021,07,08,01,45,3.60
2021,07,08,01,46,2.90
2021,07,08,01,47,3.30
2021,07,08,01,48,3.50
2021,07,08,01,49,3.60
2021,07,08,01,50,4.10
2021,07,08,01,51,3.60
2021,07,08,01,52,2.50
2021,07,08,01,53,1.00
2021,07,08,01,54,3.30
2021,07,08,01,55,4.00
2021,07,08,01,56,4.60
2021,07,08,01,57,6.40
2021,07,08,01,58,6.70
2021,07,08,01,59,6.00
2021,07,08,02,00,3.20
2021,07,08,02,01,3.40
2021,07,08,02,02,3.10
2021,07,08,02,03,2.00
2021,07,08,02,04,2.00
2021,07,08,02,05,1.90
2021,07,08,02,06,2.10
2021,07,08,02,07,3.70
2021,07,08,02,08,2.70
2021,07,08,02,09,0.90
2021,07,08,02,10,2.00
2021,07,08,02,11,2.70
2021,07,08,02,12,1.30
2021,07,08,02,13,1.00
2021,07,08,02,14,2.40
2021,07,08,02,15,4.50
2021,07,08,02,16,5.20
2021,07,08,02,17,5.10
2021,07,08,02,18,3.80
2021,07,08,02,19,3.00
2021,07,08,02,20,3.00
2021,07,08,02,21,3.60
2021,07,08,02,22,3.70
2021,07,08,02,23,3.80
2021,07,08,02,24,4.20
2021,07,08,02,25,4.20
2021,07,08,02,26,3.10
2021,07,08,02,27,2.70
2021,07,08,02,28,2.90
2021,07,08,02,29,3.10
2021,07,08,02,30,2.60
2021,07,08,02,31,2.70
2021,07,08,02,32,1.90
2021,07,08,02,33,1.70
2021,07,08,02,34,2.10
2021,07,08,02,35,2.00
2021,07,08,02,36,1.70
2021,07,08,02,37,0.80
2021,07,08,02,38,0.40
2021,07,08,02,39,0.80
2021,07,08,02,40,0.90
2021,07,08,02,41,1.40
2021,07,08,02,42,1.30
2021,07,08,02,43,1.70
2021,07,08,02,44,1.70
2021,07,08,02,45,1.50
2021,07,08,02,46,1.90
2021,07,08,02,47,1.90
2021,07,08,02,48,1.90
2021,07,08,02,49,2.10
2021,07,08,02,50,1.70
2021,07,08,02,51,1.60
2021,07,08,02,52,2.20
2021,07,08,02,53,2.10
2021,07,08,02,54,2.20
2021,07,08,02,55,2.20
2021,07,08,02,56,2.30
2021,07,08,02,57,2.20
2021,07,08,02,58,2.70
2021,07,08,02,59,1.90
2021,07,08,03,00,2.10
2021,07,08,03,01,2.60
2021,07,08,03,02,2.90
2021,07,08,03,03,2.20
2021,07,08,03,04,2.00
2021,07,08,03,05,1.80
2021,07,08,03,06,2.40
2021,07,08,03,07,2.20
2021,07,08,03,08,3.30
2021,07,08,03,09,2.00
2021,07,08,03,10,4.40
2021,07,08,03,11,4.10
2021,07,08,03,12,3.40
2021,07,08,03,13,4.60
2021,07,08,03,14,3.90
2021,07,08,03,15,2.30
2021,07,08,03,16,2.50
2021,07,08,03,17,2.30
2021,07,08,03,18,2.90
2021,07,08,03,19,2.30
2021,07,08,03,20,2.30
2021,07,08,03,21,2.60
2021,07,08,03,22,2.70
2021,07,08,03,23,2.70
2021,07,08,03,24,2.80
2021,07,08,03,25,3.00
2021,07,08,03,26,3.20
2021,07,08,03,27,3.40
2021,07,08,03,28,3.20
2021,07,08,03,29,3.30
2021,07,08,03,30,2.80
2021,07,08,03,31,2.60
2021,07,08,03,32,3.20
2021,07,08,03,33,2.10
2021,07,08,03,34,1.60
2021,07,08,03,35,1.20
2021,07,08,03,36,1.30
2021,07,08,03,37,1.30
2021,07,08,03,38,1.70
2021,07,08,03,39,1.60
2021,07,08,03,40,1.60
2021,07,08,03,41,0.80
2021,07,08,03,42,0.90
2021,07,08,03,43,0.90
2021,07,08,03,44,1.80
2021,07,08,03,45,2.00
2021,07,08,03,46,1.40
2021,07,08,03,47,0.90
2021,07,08,03,48,0.10
2021,07,08,03,49,0.10
2021,07,08,03,50,2.10
2021,07,08,03,51,2.70
2021,07,08,03,52,2.90
2021,07,08,03,53,2.10
2021,07,08,03,54,2.20
2021,07,08,03,55,1.70
2021,07,08,03,56,1.70
2021,07,08,03,57,1.60
2021,07,08,03,58,1.30
2021,07,08,03,59,1.30
2021,07,08,04,00,1.30
2021,07,08,04,01,0.80
2021,07,08,04,02,0.60
2021,07,08,04,03,1.20
2021,07,08,04,04,0.70
2021,07,08,04,05,0.30
2021,07,08,04,06,1.00
2021,07,08,04,07,0.70
2021,07,08,04,08,0.60
2021,07,08,04,09,0.10
2021,07,08,04,10,0.00
2021,07,08,04,11,1.30
2021,07,08,04,12,1.80
2021,07,08,04,13,1.10
2021,07,08,04,14,1.10
2021,07,08,04,15,0.90
2021,07,08,04,16,0.70
2021,07,08,04,17,1.60
2021,07,08,04,18,1.00
2021,07,08,04,19,0.90
2021,07,08,04,20,1.20
2021,07,08,04,21,1.10
2021,07,08,04,22,1.20
2021,07,08,04,23,1.20
2021,07,08,04,24,0.90
2021,07,08,04,25,0.30
2021,07,08,04,26,0.50
2021,07,08,04,27,0.10
2021,07,08,04,28,0.00
2021,07,08,04,29,0.30
2021,07,08,04,30,1.30
2021,07,08,04,31,2.20
2021,07,08,04,32,2.00
2021,07,08,04,33,1.70
2021,07,08,04,34,2.00
2021,07,08,04,35,1.70
2021,07,08,04,36,1.20
2021,07,08,04,37,1.50
2021,07,08,04,38,1.30
2021,07,08,04,39,0.40
2021,07,08,04,40,0.50
2021,07,08,04,41,1.00
2021,07,08,04,42,1.90
2021,07,08,04,43,1.70
2021,07,08,04,44,1.50
2021,07,08,04,45,1.80
2021,07,08,04,46,1.00
2021,07,08,04,47,0.20
2021,07,08,04,48,0.00
2021,07,08,04,49,0.00
2021,07,08,04,50,0.00
2021,07,08,04,51,0.70
2021,07,08,04,52,0.80
2021,07,08,04,53,0.20
2021,07,08,04,54,0.10
2021,07,08,04,55,1.30
2021,07,08,04,56,1.20
2021,07,08,04,57,1.10
2021,07,08,04,58,0.40
2021,07,08,04,59,0.70
2021,07,08,05,00,0.90
2021,07,08,05,01,0.60
2021,07,08,05,02,0.50
2021,07,08,05,03,0.30
2021,07,08,05,04,0.00
2021,07,08,05,05,0.50
2021,07,08,05,06,0.90
2021,07,08,05,07,0.70
2021,07,08,05,08,0.80
2021,07,08,05,09,1.00
2021,07,08,05,10,0.90
2021,07,08,05,11,0.40
2021,07,08,05,12,0.00
2021,07,08,05,13,0.00
2021,07,08,05,14,0.00
2021,07,08,05,15,0.00
2021,07,08,05,16,0.00
2021,07,08,05,17,0.00
2021,07,08,05,18,0.40
2021,07,08,05,19,0.60
2021,07,08,05,20,0.70
2021,07,08,05,21,1.00
2021,07,08,05,22,1.50
2021,07,08,05,23,2.20
2021,07,08,05,24,2.60
2021,07,08,05,25,2.90
2021,07,08,05,26,2.20
2021,07,08,05,27,1.80
2021,07,08,05,28,1.70
2021,07,08,05,29,2.10
2021,07,08,05,30,2.00
2021,07,08,05,31,1.10
2021,07,08,05,32,1.10
2021,07,08,05,33,0.70
2021,07,08,05,34,0.50
2021,07,08,05,35,0.40
2021,07,08,05,36,0.40
2021,07,08,05,37,0.90
2021,07,08,05,38,0.80
2021,07,08,05,39,0.70
2021,07,08,05,40,0.20
2021,07,08,05,41,0.00
2021,07,08,05,42,0.40
2021,07,08,05,43,1.80
2021,07,08,05,44,2.50
2021,07,08,05,45,1.90
2021,07,08,05,46,2.10
2021,07,08,05,47,2.00
2021,07,08,05,48,1.30
2021,07,08,05,49,0.60
2021,07,08,05,50,0.20
2021,07,08,05,51,0.00
2021,07,08,05,52,0.10
2021,07,08,05,53,0.00
2021,07,08,05,54,0.00
2021,07,08,05,55,0.00
2021,07,08,05,56,0.00
2021,07,08,05,57,0.00
2021,07,08,05,58,0.10
2021,07,08,05,59,1.00
2021,07,08,06,00,0.70
2021,07,08,06,01,0.80
2021,07,08,06,02,1.00
2021,07,08,06,03,0.60
2021,07,08,06,04,0.10
2021,07,08,06,05,0.00
2021,07,08,06,06,0.00
2021,07,08,06,07,0.00
2021,07,08,06,08,0.00
2021,07,08,06,09,0.20
2021,07,08,06,10,0.00
2021,07,08,06,11,0.00
2021,07,08,06,12,0.10
2021,07,08,06,13,0.00
2021,07,08,06,14,0.00
2021,07,08,06,15,0.10
2021,07,08,06,16,0.20
2021,07,08,06,17,0.80
2021,07,08,06,18,1.00
2021,07,08,06,19,0.80
2021,07,08,06,20,1.10
2021,07,08,06,21,0.80
2021,07,08,06,22,1.10
2021,07,08,06,23,1.30
2021,07,08,06,24,1.10
2021,07,08,06,25,1.00
2021,07,08,06,26,0.70
2021,07,08,06,27,0.90
2021,07,08,06,28,1.50
2021,07,08,06,29,1.30
2021,07,08,06,30,2.20
2021,07,08,06,31,1.90
2021,07,08,06,32,1.70
2021,07,08,06,33,2.00
2021,07,08,06,34,2.70
2021,07,08,06,35,2.80
2021,07,08,06,36,2.90
2021,07,08,06,37,2.70
2021,07,08,06,38,3.30
2021,07,08,06,39,2.40
2021,07,08,06,40,2.00
2021,07,08,06,41,2.20
2021,07,08,06,42,3.10
2021,07,08,06,43,2.90
2021,07,08,06,44,3.80
2021,07,08,06,45,3.70
2021,07,08,06,46,3.10
2021,07,08,06,47,3.00
2021,07,08,06,48,3.10
2021,07,08,06,49,2.40
2021,07,08,06,50,2.70
2021,07,08,06,51,2.60
2021,07,08,06,52,1.80
2021,07,08,06,53,2.30
2021,07,08,06,54,1.60
2021,07,08,06,55,2.00
2021,07,08,06,56,0.90
2021,07,08,06,57,1.40
2021,07,08,06,58,1.60
2021,07,08,06,59,1.80
2021,07,08,07,00,1.60
2021,07,08,07,01,1.30
2021,07,08,07,02,1.40
2021,07,08,07,03,2.00
2021,07,08,07,04,2.30
2021,07,08,07,05,1.70
2021,07,08,07,06,1.00
2021,07,08,07,07,1.20
2021,07,08,07,08,1.50
2021,07,08,07,09,1.20
2021,07,08,07,10,1.20
2021,07,08,07,11,1.70
2021,07,08,07,12,1.90
2021,07,08,07,13,2.80
2021,07,08,07,14,3.30
2021,07,08,07,15,2.50
2021,07,08,07,16,3.00
2021,07,08,07,17,3.40
2021,07,08,07,18,3.70
2021,07,08,07,19,4.30
2021,07,08,07,20,4.30
2021,07,08,07,21,4.30
2021,07,08,07,22,4.90
2021,07,08,07,23,4.80
2021,07,08,07,24,6.40
2021,07,08,07,25,6.40
2021,07,08,07,26,5.50
2021,07,08,07,27,5.30
2021,07,08,07,28,5.00
2021,07,08,07,29,5.50
2021,07,08,07,30,6.60
2021,07,08,07,31,6.60
2021,07,08,07,32,6.70
2021,07,08,07,33,6.20
2021,07,08,07,34,6.80
2021,07,08,07,35,6.00
2021,07,08,07,36,6.80
2021,07,08,07,37,6.60
2021,07,08,07,38,7.40
2021,07,08,07,39,8.00
2021,07,08,07,40,8.90
2021,07,08,07,41,8.10
2021,07,08,07,42,7.70
2021,07,08,07,43,8.30
2021,07,08,07,44,10.20
2021,07,08,07,45,10.30
2021,07,08,07,46,10.10
2021,07,08,07,47,9.80
2021,07,08,07,48,8.70
2021,07,08,07,49,8.80
2021,07,08,07,50,9.70
2021,07,08,07,51,7.90
2021,07,08,07,52,8.90
2021,07,08,07,53,9.20
2021,07,08,07,54,8.90
2021,07,08,07,55,6.90
2021,07,08,07,56,6.70
2021,07,08,07,57,6.30
2021,07,08,07,58,6.40
2021,07,08,07,59,6.00
2021,07,08,08,00,6.20
2021,07,08,08,01,5.40
2021,07,08,08,02,5.60
2021,07,08,08,03,5.60
2021,07,08,08,04,5.20
2021,07,08,08,05,5.70
2021,07,08,08,06,4.70
2021,07,08,08,07,5.60
2021,07,08,08,08,4.90
2021,07,08,08,09,4.90
2021,07,08,08,10,5.30
2021,07,08,08,11,5.10
2021,07,08,08,12,5.40
2021,07,08,08,13,6.20
2021,07,08,08,14,6.80
2021,07,08,08,15,6.50
2021,07,08,08,16,5.90
2021,07,08,08,17,7.00
2021,07,08,08,18,7.60
2021,07,08,08,19,7.80
2021,07,08,08,20,7.60
2021,07,08,08,21,8.30
2021,07,08,08,22,7.20
2021,07,08,08,23,9.20
2021,07,08,08,24,9.10
2021,07,08,08,25,6.00
2021,07,08,08,26,8.40
2021,07,08,08,27,8.00
2021,07,08,08,28,8.80
2021,07,08,08,29,7.80
2021,07,08,08,30,8.20
2021,07,08,08,31,10.20
2021,07,08,08,32,10.50
2021,07,08,08,33,10.00
2021,07,08,08,34,9.10
2021,07,08,08,35,10.90
2021,07,08,08,36,10.80
2021,07,08,08,37,10.20
2021,07,08,08,38,10.50
2021,07,08,08,39,10.60
2021,07,08,08,40,10.50
2021,07,08,08,41,9.70
2021,07,08,08,42,10.80
2021,07,08,08,43,9.50
2021,07,08,08,44,10.30
2021,07,08,08,45,10.30
2021,07,08,08,46,9.70
2021,07,08,08,47,10.20
2021,07,08,08,48,10.20
2021,07,08,08,49,10.40
2021,07,08,08,50,9.20
2021,07,08,08,51,10.10
2021,07,08,08,52,10.70
2021,07,08,08,53,12.00
2021,07,08,08,54,12.20
2021,07,08,08,55,13.10
2021,07,08,08,56,12.90
2021,07,08,08,57,12.40
2021,07,08,08,58,11.70
2021,07,08,08,59,12.30
2021,07,08,09,00,12.10
2021,07,08,09,01,12.20
2021,07,08,09,02,12.20
2021,07,08,09,03,12.40
2021,07,08,09,04,13.60
2021,07,08,09,05,12.50
2021,07,08,09,06,12.80
2021,07,08,09,07,12.70
2021,07,08,09,08,11.40
2021,07,08,09,09,10.90
2021,07,08,09,10,11.60
2021,07,08,09,11,10.50
2021,07,08,09,12,10.90
2021,07,08,09,13,10.20
2021,07,08,09,14,12.30
2021,07,08,09,15,11.70
2021,07,08,09,16,11.90
2021,07,08,09,17,12.20
2021,07,08,09,18,12.20
2021,07,08,09,19,11.70
2021,07,08,09,20,11.60
2021,07,08,09,21,12.90
2021,07,08,09,22,13.40
2021,07,08,09,23,12.50
2021,07,08,09,24,13.20
2021,07,08,09,25,13.00
2021,07,08,09,26,13.50
2021,07,08,09,27,13.30
2021,07,08,09,28,13.10
2021,07,08,09,29,12.70
2021,07,08,09,30,12.90
2021,07,08,09,31,13.20
2021,07,08,09,32,13.10
2021,07,08,09,33,13.20
2021,07,08,09,34,12.30
2021,07,08,09,35,12.70
2021,07,08,09,36,12.90
2021,07,08,09,37,12.90
2021,07,08,09,38,13.50
2021,07,08,09,39,12.90
2021,07,08,09,40,13.50
2021,07,08,09,41,12.50
2021,07,08,09,42,13.10
2021,07,08,09,43,14.10
2021,07,08,09,44,13.30
2021,07,08,09,45,14.30
2021,07,08,09,46,13.70
2021,07,08,09,47,13.30
2021,07,08,09,48,13.70
2021,07,08,09,49,12.80
2021,07,08,09,50,13.10
2021,07,08,09,51,13.80
2021,07,08,09,52,13.70
2021,07,08,09,53,13.60
2021,07,08,09,54,13.70
2021,07,08,09,55,14.20
2021,07,08,09,56,14.70
2021,07,08,09,57,14.40
2021,07,08,09,58,14.40
2021,07,08,09,59,14.10
2021,07,08,10,00,13.90
2021,07,08,10,01,13.60
2021,07,08,10,02,13.90
2021,07,08,10,03,13.50
2021,07,08,10,04,13.40
2021,07,08,10,05,13.20
2021,07,08,10,06,11.70
2021,07,08,10,07,12.20
2021,07,08,10,08,11.70
2021,07,08,10,09,14.90
2021,07,08,10,10,14.10
2021,07,08,10,11,13.50
2021,07,08,10,12,14.30
2021,07,08,10,13,13.70
2021,07,08,10,14,14.30
2021,07,08,10,15,14.10
2021,07,08,10,16,16.10
2021,07,08,10,17,15.50
2021,07,08,10,18,16.90
2021,07,08,10,19,15.80
2021,07,08,10,20,15.40
2021,07,08,10,21,17.00
2021,07,08,10,22,16.60
2021,07,08,10,23,18.10
2021,07,08,10,24,18.40
2021,07,08,10,25,17.60
2021,07,08,10,26,17.60
2021,07,08,10,27,17.10
2021,07,08,10,28,17.30
2021,07,08,10,29,16.70
2021,07,08,10,30,18.10
2021,07,08,10,31,17.90
2021,07,08,10,32,18.60
2021,07,08,10,33,17.60
2021,07,08,10,34,18.10
2021,07,08,10,35,16.70
2021,07,08,10,36,18.50
2021,07,08,10,37,18.00
2021,07,08,10,38,17.40
2021,07,08,10,39,16.00
2021,07,08,10,40,17.80
2021,07,08,10,41,18.20
2021,07,08,10,42,19.50
2021,07,08,10,43,19.10
2021,07,08,10,44,18.90
2021,07,08,10,45,18.80
2021,07,08,10,46,18.80
2021,07,08,10,47,20.30
2021,07,08,10,48,21.00
2021,07,08,10,49,20.60
2021,07,08,10,50,18.90
2021,07,08,10,51,19.90
2021,07,08,10,52,19.10
2021,07,08,10,53,20.30
2021,07,08,10,54,19.20
2021,07,08,10,55,21.00
2021,07,08,10,56,19.50
2021,07,08,10,57,19.20
2021,07,08,10,58,20.80
2021,07,08,10,59,20.60
2021,07,08,11,00,20.40
2021,07,08,11,01,20.70
2021,07,08,11,02,20.40
2021,07,08,11,03,21.30
2021,07,08,11,04,22.00
2021,07,08,11,05,22.20
2021,07,08,11,06,20.10
2021,07,08,11,07,21.70
2021,07,08,11,08,18.40
2021,07,08,11,09,20.30
2021,07,08,11,10,18.80
2021,07,08,11,11,20.00
2021,07,08,11,12,20.00
2021,07,08,11,13,20.60
2021,07,08,11,14,18.70
2021,07,08,11,15,17.70
2021,07,08,11,16,20.10
2021,07,08,11,17,20.90
2021,07,08,11,18,18.50
2021,07,08,11,19,20.30
2021,07,08,11,20,21.30
2021,07,08,11,21,20.60
2021,07,08,11,22,20.80
2021,07,08,11,23,21.10
2021,07,08,11,24,20.60
2021,07,08,11,25,21.70
2021,07,08,11,26,22.00
2021,07,08,11,27,22.40
2021,07,08,11,28,22.10
2021,07,08,11,29,22.40
2021,07,08,11,30,18.80
2021,07,08,11,31,20.60
2021,07,08,11,32,20.00
2021,07,08,11,33,20.90
2021,07,08,11,34,20.80
2021,07,08,11,35,20.30
2021,07,08,11,36,19.90
2021,07,08,11,37,20.20
2021,07,08,11,38,19.90
2021,07,08,11,39,20.00
2021,07,08,11,40,19.80
2021,07,08,11,41,21.00
2021,07,08,11,42,20.90
2021,07,08,11,43,20.90
2021,07,08,11,44,19.80
2021,07,08,11,45,20.70
2021,07,08,11,46,20.20
2021,07,08,11,47,19.70
2021,07,08,11,48,20.60
2021,07,08,11,49,20.50
2021,07,08,11,50,20.40
2021,07,08,11,51,19.90
2021,07,08,11,52,20.00
2021,07,08,11,53,20.90
2021,07,08,11,54,20.60
2021,07,08,11,55,20.70
2021,07,08,11,56,20.10
2021,07,08,11,57,20.50
2021,07,08,11,58,19.80
2021,07,08,11,59,19.00
2021,07,08,12,00,17.50
2021,07,08,12,01,19.20
2021,07,08,12,02,19.50
2021,07,08,12,03,19.30
2021,07,08,12,04,18.20
2021,07,08,12,05,18.70
2021,07,08,12,06,18.30
2021,07,08,12,07,17.60
2021,07,08,12,08,17.90
2021,07,08,12,09,17.80
2021,07,08,12,10,17.20
2021,07,08,12,11,17.60
2021,07,08,12,12,17.20
2021,07,08,12,13,17.20
2021,07,08,12,14,17.40
2021,07,08,12,15,17.10
2021,07,08,12,16,16.80
2021,07,08,12,17,16.30
2021,07,08,12,18,16.70
2021,07,08,12,19,17.10
2021,07,08,12,20,16.60
2021,07,08,12,21,16.20
2021,07,08,12,22,16.40
2021,07,08,12,23,16.00
2021,07,08,12,24,17.80
2021,07,08,12,25,18.00
2021,07,08,12,26,18.10
2021,07,08,12,27,17.60
2021,07,08,12,28,19.10
2021,07,08,12,29,17.00
2021,07,08,12,30,19.10
2021,07,08,12,31,18.50
2021,07,08,12,32,18.50
2021,07,08,12,33,17.70
2021,07,08,12,34,17.80
2021,07,08,12,35,16.80
2021,07,08,12,36,19.00
2021,07,08,12,37,18.50
2021,07,08,12,38,19.20
2021,07,08,12,39,19.40
2021,07,08,12,40,18.80
2021,07,08,12,41,19.40
2021,07,08,12,42,19.90
2021,07,08,12,43,18.40
2021,07,08,12,44,18.70
2021,07,08,12,45,18.70
2021,07,08,12,46,19.20
2021,07,08,12,47,18.30
2021,07,08,12,48,19.80
2021,07,08,12,49,19.10
2021,07,08,12,50,18.00
2021,07,08,12,51,17.00
2021,07,08,12,52,18.80
2021,07,08,12,53,18.50
2021,07,08,12,54,19.10
2021,07,08,12,55,18.90
2021,07,08,12,56,18.80
2021,07,08,12,57,19.80
2021,07,08,12,58,19.90
2021,07,08,12,59,18.70
2021,07,08,13,00,18.40
2021,07,08,13,01,18.80
2021,07,08,13,02,18.70
2021,07,08,13,03,17.90
2021,07,08,13,04,17.90
2021,07,08,13,05,17.30
2021,07,08,13,06,17.70
2021,07,08,13,07,19.20
2021,07,08,13,08,19.20
2021,07,08,13,09,20.30
2021,07,08,13,10,20.40
2021,07,08,13,11,19.80
2021,07,08,13,12,18.40
2021,07,08,13,13,20.00
2021,07,08,13,14,19.40
2021,07,08,13,15,20.00
2021,07,08,13,16,19.70
2021,07,08,13,17,19.80
2021,07,08,13,18,18.60
2021,07,08,13,19,18.20
2021,07,08,13,20,17.50
2021,07,08,13,21,18.00
2021,07,08,13,22,18.20
2021,07,08,13,23,18.50
2021,07,08,13,24,18.70
2021,07,08,13,25,18.10
2021,07,08,13,26,17.60
2021,07,08,13,27,17.90
2021,07,08,13,28,16.30
2021,07,08,13,29,16.90
2021,07,08,13,30,16.80
2021,07,08,13,31,16.30
2021,07,08,13,32,16.20
2021,07,08,13,33,17.30
2021,07,08,13,34,16.60
2021,07,08,13,35,16.70
2021,07,08,13,36,16.20
2021,07,08,13,37,15.60
2021,07,08,13,38,15.90
2021,07,08,13,39,14.20
2021,07,08,13,40,13.50
2021,07,08,13,41,13.40
2021,07,08,13,42,13.20
2021,07,08,13,43,11.90
2021,07,08,13,44,11.90
2021,07,08,13,45,11.90
2021,07,08,13,46,10.20
2021,07,08,13,47,9.60
2021,07,08,13,48,9.80
2021,07,08,13,49,11.10
2021,07,08,13,50,8.20
2021,07,08,13,51,10.00
2021,07,08,13,52,9.50
2021,07,08,13,53,10.90
2021,07,08,13,54,8.80
2021,07,08,13,55,9.80
2021,07,08,13,56,11.20
2021,07,08,13,57,11.80
2021,07,08,13,58,11.40
2021,07,08,13,59,12.30
2021,07,08,14,00,14.40
2021,07,08,14,01,15.40
2021,07,08,14,02,15.60
2021,07,08,14,03,16.50
2021,07,08,14,04,14.10
2021,07,08,14,05,14.80
2021,07,08,14,06,14.20
2021,07,08,14,07,15.90
2021,07,08,14,08,15.10
2021,07,08,14,09,13.80
2021,07,08,14,10,16.90
2021,07,08,14,11,16.90
2021,07,08,14,12,16.20
2021,07,08,14,13,17.20
2021,07,08,14,14,17.40
2021,07,08,14,15,16.90
2021,07,08,14,16,17.20
2021,07,08,14,17,16.60
2021,07,08,14,18,15.70
2021,07,08,14,19,14.70
2021,07,08,14,20,17.00
2021,07,08,14,21,16.00
2021,07,08,14,22,13.90
2021,07,08,14,23,15.10
2021,07,08,14,24,14.20
2021,07,08,14,25,15.30
2021,07,08,14,26,15.80
2021,07,08,14,27,15.30
2021,07,08,14,28,14.80
2021,07,08,14,29,12.90
2021,07,08,14,30,12.50
2021,07,08,14,31,14.10
2021,07,08,14,32,14.20
2021,07,08,14,33,12.80
2021,07,08,14,34,11.60
2021,07,08,14,35,9.90
2021,07,08,14,36,11.50
2021,07,08,14,37,10.40
2021,07,08,14,38,10.80
2021,07,08,14,39,13.50
2021,07,08,14,40,12.70
2021,07,08,14,41,12.40
2021,07,08,14,42,13.60
2021,07,08,14,43,10.90
2021,07,08,14,44,12.70
2021,07,08,14,45,9.30
2021,07,08,14,46,9.90
2021,07,08,14,47,9.20
2021,07,08,14,48,10.30
2021,07,08,14,49,11.80
2021,07,08,14,50,10.90
2021,07,08,14,51,12.40
2021,07,08,14,52,11.80
2021,07,08,14,53,8.10
2021,07,08,14,54,7.20
2021,07,08,14,55,9.00
2021,07,08,14,56,9.80
2021,07,08,14,57,7.50
2021,07,08,14,58,8.50
2021,07,08,14,59,9.40
2021,07,08,15,00,9.80
2021,07,08,15,01,10.70
2021,07,08,15,02,9.90
2021,07,08,15,03,11.00
2021,07,08,15,04,10.80
2021,07,08,15,05,11.90
2021,07,08,15,06,13.00
2021,07,08,15,07,10.90
2021,07,08,15,08,10.00
2021,07,08,15,09,10.10
2021,07,08,15,10,7.90
2021,07,08,15,11,8.60
2021,07,08,15,12,10.40
2021,07,08,15,13,8.70
2021,07,08,15,14,8.60
2021,07,08,15,15,8.90
2021,07,08,15,16,7.10
2021,07,08,15,17,8.70
2021,07,08,15,18,7.00
2021,07,08,15,19,8.10
2021,07,08,15,20,11.60
2021,07,08,15,21,9.90
2021,07,08,15,22,9.30
2021,07,08,15,23,12.20
2021,07,08,15,24,10.90
2021,07,08,15,25,10.70
2021,07,08,15,26,11.80
2021,07,08,15,27,11.50
2021,07,08,15,28,12.10
2021,07,08,15,29,12.20
2021,07,08,15,30,12.00
2021,07,08,15,31,13.80
2021,07,08,15,32,12.80
2021,07,08,15,33,11.60
2021,07,08,15,34,12.00
2021,07,08,15,35,11.90
2021,07,08,15,36,11.20
2021,07,08,15,37,11.00
2021,07,08,15,38,12.00
2021,07,08,15,39,12.00
2021,07,08,15,40,10.40
2021,07,08,15,41,13.00
2021,07,08,15,42,13.50
2021,07,08,15,43,12.90
2021,07,08,15,44,11.90
2021,07,08,15,45,11.30
2021,07,08,15,46,13.50
2021,07,08,15,47,14.40
2021,07,08,15,48,12.60
2021,07,08,15,49,13.50
2021,07,08,15,50,12.90
2021,07,08,15,51,13.20
2021,07,08,15,52,13.40
2021,07,08,15,53,13.30
2021,07,08,15,54,12.90
2021,07,08,15,55,13.40
2021,07,08,15,56,12.50
2021,07,08,15,57,11.40
2021,07,08,15,58,9.20
2021,07,08,15,59,8.90
2021,07,08,16,00,8.40
2021,07,08,16,01,6.10
2021,07,08,16,02,6.70
2021,07,08,16,03,5.50
2021,07,08,16,04,7.00
2021,07,08,16,05,5.80
2021,07,08,16,06,7.30
2021,07,08,16,07,11.60
2021,07,08,16,08,10.80
2021,07,08,16,09,11.70
2021,07,08,16,10,10.10
2021,07,08,16,11,11.70
2021,07,08,16,12,11.20
2021,07,08,16,13,12.00
2021,07,08,16,14,11.20
2021,07,08,16,15,13.70
2021,07,08,16,16,12.60
2021,07,08,16,17,12.50
2021,07,08,16,18,13.80
2021,07,08,16,19,14.50
2021,07,08,16,20,14.30
2021,07,08,16,21,14.90
2021,07,08,16,22,13.00
2021,07,08,16,23,12.80
2021,07,08,16,24,13.60
2021,07,08,16,25,12.90
2021,07,08,16,26,13.50
2021,07,08,16,27,13.20
2021,07,08,16,28,12.70
2021,07,08,16,29,11.80
2021,07,08,16,30,12.90
2021,07,08,16,31,12.30
2021,07,08,16,32,11.50
2021,07,08,16,33,11.30
2021,07,08,16,34,11.90
2021,07,08,16,35,11.50
2021,07,08,16,36,11.40
2021,07,08,16,37,12.20
2021,07,08,16,38,12.60
2021,07,08,16,39,11.90
2021,07,08,16,40,11.40
2021,07,08,16,41,12.20
2021,07,08,16,42,11.60
2021,07,08,16,43,11.60
2021,07,08,16,44,12.20
2021,07,08,16,45,12.00
2021,07,08,16,46,12.50
2021,07,08,16,47,12.20
2021,07,08,16,48,13.20
2021,07,08,16,49,11.00
2021,07,08,16,50,11.80
2021,07,08,16,51,8.50
2021,07,08,16,52,10.40
2021,07,08,16,53,10.10
2021,07,08,16,54,10.20
2021,07,08,16,55,10.70
2021,07,08,16,56,7.90
2021,07,08,16,57,8.20
2021,07,08,16,58,10.20
2021,07,08,16,59,10.90
2021,07,08,17,00,11.40
2021,07,08,17,01,13.20
2021,07,08,17,02,13.50
2021,07,08,17,03,12.20
2021,07,08,17,04,12.10
2021,07,08,17,05,9.80
2021,07,08,17,06,8.80
2021,07,08,17,07,10.00
2021,07,08,17,08,10.40
2021,07,08,17,09,10.10
2021,07,08,17,10,9.70
2021,07,08,17,11,9.70
2021,07,08,17,12,9.40
2021,07,08,17,13,10.10
2021,07,08,17,14,7.20
2021,07,08,17,15,8.00
2021,07,08,17,16,9.10
2021,07,08,17,17,9.40
2021,07,08,17,18,10.50
2021,07,08,17,19,9.90
2021,07,08,17,20,9.00
2021,07,08,17,21,10.70
2021,07,08,17,22,10.60
2021,07,08,17,23,10.30
2021,07,08,17,24,10.10
2021,07,08,17,25,10.00
2021,07,08,17,26,11.10
2021,07,08,17,27,10.80
2021,07,08,17,28,11.30
2021,07,08,17,29,10.50
2021,07,08,17,30,8.50
2021,07,08,17,31,10.50
2021,07,08,17,32,10.40
2021,07,08,17,33,12.50
2021,07,08,17,34,12.60
2021,07,08,17,35,12.40
2021,07,08,17,36,13.00
2021,07,08,17,37,11.10
2021,07,08,17,38,9.40
2021,07,08,17,39,10.40
2021,07,08,17,40,11.20
2021,07,08,17,41,11.80
2021,07,08,17,42,11.20
2021,07,08,17,43,9.60
2021,07,08,17,44,8.60